"Pseudo-MPEC" for C0GNT15

Created 2023 Mar 26 6:22:03 UT using Find_Orb

Click here for an explanation of pseudo-MPECs

 
 Astrometry: 
     C0GNT15* C2023 03 14y78!l5`(PAstrometryT@)$FFngb.,oqUU3xepBaredacted;4tSV00
     C0GNT15  C2023 03 14J6n,fHJ`click+)`QwM9,4bWirjA]:cherexPUfI.-K2GV;.am5!V00
     C0GNT15  C2023 03 14S#=0l5U4soQOKO%[forQE^_,explanation0LT@A(4+]g/RU6aCcV00

Station data:
(V00) Kitt Peak-Bok  (N31.963125 W111.600190)  US/Arizona.  Observers T. A.
   Pruyne, B. M. Africano, E. J. Christensen, G. A. Farneth, D. C. Fuls, A.
   R. Gibbs, A. D. Grauer, H. Gröller, J. A. Johnson, R. A. Kowalski, S. M.
   Larson, G. J. Leonard, D. Rankin, R. L. Seaman, F. C. Shelly, K. W.
   Wierzchoś. 2.25-m reflector + CCD.

Orbital elements:  C0GNT15
   Perihelion 2023 Mar 4.90995 +/- 53.2 TT = 21:50:20 (JD 2460008.40995)
Epoch 2023 Mar 14.0 TT = JDT 2460017.5   Earth MOID: 0.0167      AutoNEOCP
M   9.45969046 +/- 46               (J2000 ecliptic)
n   1.04066470 +/- 1.05             Peri.   35.43993 +/- 60
a   0.96441102 +/- 0.65             Node   123.84410 +/- 36
e   0.0288543 +/- 0.26              Incl.    0.70995 +/- 56
P   0.95/345.93d           H 19.29  G  0.15   U 12.8  SR
q 0.93658353 +/- 0.73    Q 0.99223851 +/- 520
From 3 observations 2023 Mar. 14 (21.9 min); mean residual 0".15
Residuals in arcseconds: 
230314 V00  .19-  .00     230314 V00  .29+  .02+    230314 V00  .10-  .01-    

Ephemerides (geocentric):
Date (UTC) HH   RA             Dec           delta  r     elong  mag " sig PA
---- --------  ------------   ------------  ------ ------ -----  --- --------
2023 03 26 06  02 05 08.821   +21 20 52.69  .07030 .93878  32.4 21?? 4363 150
2023 03 26 07  02 05 05.713   +21 21 08.48  .07027 .93878  32.4 21?? 4396 150
2023 03 26 08  02 05 02.592   +21 21 24.19  .07023 .93879  32.3 21?? 4429 150
2023 03 26 09  02 04 59.458   +21 21 39.82  .07020 .93880  32.3 21?? 4461 150
2023 03 26 10  02 04 56.310   +21 21 55.38  .07016 .93881  32.2 21?? 4494 150
2023 03 26 11  02 04 53.148   +21 22 10.86  .07012 .93882  32.2 21?? 4527 150
2023 03 26 12  02 04 49.974   +21 22 26.26  .07009 .93883  32.1 21?? 4561 150
2023 03 26 13  02 04 46.786   +21 22 41.59  .07005 .93884  32.1 21?? 4594 150
2023 03 26 14  02 04 43.584   +21 22 56.83  .07001 .93884  32.0 21?? 4628 150
2023 03 26 15  02 04 40.369   +21 23 12.01  .06998 .93885  32.0 21?? 4662 150
2023 03 26 16  02 04 37.141   +21 23 27.10  .06994 .93886  31.9 21?? 4695 150
2023 03 26 17  02 04 33.899   +21 23 42.11  .06991 .93887  31.9 21?? 4730 150
2023 03 26 18  02 04 30.644   +21 23 57.05  .06987 .93888  31.8 21?? 4764 150
2023 03 26 19  02 04 27.375   +21 24 11.91  .06983 .93889  31.8 21?? 4798 150
2023 03 26 20  02 04 24.093   +21 24 26.69  .06980 .93890  31.7 21?? 4833 150
2023 03 26 21  02 04 20.798   +21 24 41.39  .06976 .93891  31.7 21?? 4867 150
2023 03 26 22  02 04 17.489   +21 24 56.02  .06973 .93891  31.6 21?? 4902 150
2023 03 26 23  02 04 14.167   +21 25 10.56  .06969 .93892  31.6 21?? 4937 150
2023 03 27 00  02 04 10.831   +21 25 25.03  .06965 .93893  31.5 21?? 4972 150
2023 03 27 01  02 04 07.482   +21 25 39.41  .06962 .93894  31.5 21?? 5008 150
2023 03 27 02  02 04 04.120   +21 25 53.72  .06958 .93895  31.5 21?? 5043 150
2023 03 27 03  02 04 00.744   +21 26 07.95  .06955 .93896  31.4 21?? 5079 150
2023 03 27 04  02 03 57.355   +21 26 22.09  .06951 .93897  31.4 21?? 5114 150
2023 03 27 05  02 03 53.952   +21 26 36.16  .06948 .93898  31.3 21?? 5150 150
2023 03 27 06  02 03 50.536   +21 26 50.14  .06944 .93898  31.3 21?? 5187 150
2023 03 27 07  02 03 47.106   +21 27 04.05  .06940 .93899  31.2 21?? 5223 150
2023 03 27 08  02 03 43.663   +21 27 17.88  .06937 .93900  31.2 21?? 5259 150
2023 03 27 09  02 03 40.206   +21 27 31.62  .06933 .93901  31.1 21?? 5296 151
2023 03 27 10  02 03 36.736   +21 27 45.28  .06930 .93902  31.1 21?? 5333 151
2023 03 27 11  02 03 33.253   +21 27 58.86  .06926 .93903  31.0 21?? 5370 151
2023 03 27 12  02 03 29.756   +21 28 12.36  .06923 .93904  31.0 21?? 5407 151
2023 03 27 13  02 03 26.246   +21 28 25.78  .06919 .93905  30.9 21?? 5444 151
2023 03 27 14  02 03 22.722   +21 28 39.12  .06916 .93906  30.9 21?? 5481 151
2023 03 27 15  02 03 19.185   +21 28 52.38  .06912 .93906  30.8 21?? 5519 151
2023 03 27 16  02 03 15.634   +21 29 05.55  .06909 .93907  30.8 21?? 5557 151
2023 03 27 17  02 03 12.070   +21 29 18.64  .06905 .93908  30.7 21?? 5595 151
2023 03 27 18  02 03 08.493   +21 29 31.65  .06902 .93909  30.7 21?? 5633 151
2023 03 27 19  02 03 04.902   +21 29 44.57  .06898 .93910  30.6 21?? 5671 151
2023 03 27 20  02 03 01.297   +21 29 57.42  .06895 .93911  30.6 21?? 5709 151
2023 03 27 21  02 02 57.680   +21 30 10.18  .06891 .93912  30.5 21?? 5748 151
2023 03 27 22  02 02 54.048   +21 30 22.85  .06888 .93913  30.5 21?? 5787 151
2023 03 27 23  02 02 50.404   +21 30 35.44  .06884 .93914  30.4 21?? 5826 151
2023 03 28 00  02 02 46.745   +21 30 47.95  .06881 .93915  30.4 21?? 5865 151
2023 03 28 01  02 02 43.074   +21 31 00.38  .06877 .93916  30.3 21?? 5904 151
2023 03 28 02  02 02 39.389   +21 31 12.72  .06874 .93916  30.3 21?? 5944 151
2023 03 28 03  02 02 35.690   +21 31 24.98  .06871 .93917  30.2 21?? 5983 151
2023 03 28 04  02 02 31.978   +21 31 37.15  .06867 .93918  30.2 21?? 6023 151
2023 03 28 05  02 02 28.253   +21 31 49.24  .06864 .93919  30.1 21?? 6063 151